PAS307 WIMM-WIII

Flight info

Callsign PAS307
Flight time 1h 56m
Altitude 35000
Route OMBES T5 BUNIK
Aircraft A320/M-SDE3FGHIRWY/LB1

Departure

Time 2026-05-04 09:44
Airport Kualanamu International Airport (WIMM)

Arrival

Time 2026-05-04 11:41
Airport Soekarno-Hatta International Airport (WIII)
Time Latitude Longitude Altitude Speed Heading
2026-05-04 09:04 3.63537 98.88193 33 ft 0 kts 225°
2026-05-04 09:27 3.63545 98.88201 33 ft 2 kts 225°
2026-05-04 09:28 3.63556 98.88212 33 ft 2 kts 225°
2026-05-04 09:28 3.63567 98.88223 33 ft 2 kts 225°
2026-05-04 09:28 3.63578 98.88234 33 ft 2 kts 224°
2026-05-04 09:28 3.63585 98.88246 33 ft 2 kts 266°
2026-05-04 09:29 3.63582 98.88261 33 ft 2 kts 302°
2026-05-04 09:29 3.63571 98.88271 33 ft 2 kts 320°
2026-05-04 09:29 3.63561 98.88282 33 ft 2 kts 314°
2026-05-04 09:29 3.63552 98.88291 33 ft 0 kts 316°
2026-05-04 09:30 3.63551 98.88292 33 ft 0 kts 315°
2026-05-04 09:34 3.63663 98.88331 33 ft 6 kts 45°
2026-05-04 09:34 3.63700 98.88367 33 ft 8 kts 45°
2026-05-04 09:34 3.63743 98.88410 33 ft 9 kts 45°
2026-05-04 09:34 3.63799 98.88448 33 ft 10 kts 11°
2026-05-04 09:35 3.63861 98.88416 33 ft 11 kts 313°
2026-05-04 09:35 3.63918 98.88358 33 ft 11 kts 314°
2026-05-04 09:35 3.63978 98.88297 33 ft 12 kts 314°
2026-05-04 09:35 3.64043 98.88232 33 ft 13 kts 314°
2026-05-04 09:37 3.64221 98.87740 33 ft 12 kts 225°
2026-05-04 09:37 3.64155 98.87674 33 ft 13 kts 225°
2026-05-04 09:38 3.64086 98.87606 33 ft 14 kts 225°
2026-05-04 09:38 3.64014 98.87534 33 ft 14 kts 225°
2026-05-04 09:38 3.63938 98.87459 33 ft 15 kts 225°
2026-05-04 09:38 3.63862 98.87382 33 ft 15 kts 225°
2026-05-04 09:39 3.63783 98.87303 33 ft 16 kts 225°
2026-05-04 09:39 3.63703 98.87224 33 ft 16 kts 225°
2026-05-04 09:39 3.63620 98.87141 33 ft 16 kts 225°
2026-05-04 09:39 3.63537 98.87059 33 ft 16 kts 225°
2026-05-04 09:40 3.63451 98.86974 33 ft 17 kts 225°
2026-05-04 09:40 3.63359 98.86882 33 ft 19 kts 225°
2026-05-04 09:40 3.63261 98.86785 33 ft 19 kts 225°
2026-05-04 09:40 3.63163 98.86687 33 ft 19 kts 225°
2026-05-04 09:41 3.63065 98.86589 33 ft 19 kts 225°
2026-05-04 09:42 3.62548 98.85922 33 ft 14 kts 316°
2026-05-04 09:43 3.62603 98.85884 33 ft 7 kts 13°
2026-05-04 09:43 3.62628 98.85902 33 ft 0 kts 45°
2026-05-04 09:43 3.62687 98.85961 33 ft 40 kts 45°
2026-05-04 09:43 3.63053 98.86327 33 ft 105 kts 44°
2026-05-04 09:44 3.63714 98.86983 33 ft 159 kts 46°
2026-05-04 09:44 3.64556 98.87814 344 ft 175 kts 43°
2026-05-04 09:44 3.65388 98.88705 902 ft 175 kts 55°
2026-05-04 09:46 3.63044 98.96899 3423 ft 207 kts 104°
2026-05-04 09:46 3.62639 98.98342 3680 ft 221 kts 105°
2026-05-04 09:46 3.62202 98.99873 3945 ft 234 kts 105°
2026-05-04 09:47 3.61715 99.01488 4135 ft 253 kts 111°
2026-05-04 09:47 3.60707 99.02971 4398 ft 269 kts 137°
2026-05-04 09:49 3.49905 99.12158 8351 ft 305 kts 139°
2026-05-04 09:49 3.48318 99.13532 9181 ft 306 kts 139°
2026-05-04 09:49 3.46694 99.14928 10105 ft 307 kts 139°
2026-05-04 09:51 3.36680 99.23560 12920 ft 328 kts 138°
2026-05-04 09:51 3.34948 99.25053 13463 ft 329 kts 137°
2026-05-04 09:51 3.33204 99.26559 14066 ft 329 kts 137°
2026-05-04 09:51 3.31494 99.28038 14660 ft 329 kts 137°
2026-05-04 09:52 3.29747 99.29551 15255 ft 329 kts 137°
2026-05-04 09:52 3.28016 99.31049 15789 ft 330 kts 137°
2026-05-04 09:52 3.26294 99.32539 16288 ft 332 kts 137°
2026-05-04 09:52 3.24532 99.34062 16754 ft 334 kts 137°
2026-05-04 09:53 3.22752 99.35603 16962 ft 345 kts 137°
2026-05-04 09:53 3.20901 99.37206 17186 ft 354 kts 137°
2026-05-04 09:53 3.19026 99.38824 17555 ft 358 kts 137°
2026-05-04 09:53 3.17114 99.40471 17994 ft 359 kts 137°
2026-05-04 09:54 3.15225 99.42098 18378 ft 361 kts 137°
2026-05-04 09:54 3.13320 99.43739 18747 ft 364 kts 137°
2026-05-04 09:54 3.11390 99.45403 19116 ft 366 kts 137°
2026-05-04 09:54 3.09450 99.47076 19489 ft 368 kts 137°
2026-05-04 09:55 3.07504 99.48756 19847 ft 371 kts 137°
2026-05-04 09:55 3.05561 99.50434 20192 ft 373 kts 137°
2026-05-04 09:55 3.03573 99.52150 20534 ft 375 kts 137°
2026-05-04 09:55 3.01589 99.53865 20865 ft 378 kts 138°
2026-05-04 09:56 2.99592 99.55590 21192 ft 380 kts 138°
2026-05-04 09:56 2.97594 99.57317 21522 ft 382 kts 138°
2026-05-04 09:56 2.95570 99.59066 21845 ft 384 kts 138°
2026-05-04 09:56 2.93562 99.60800 22158 ft 385 kts 138°
2026-05-04 09:57 2.91513 99.62569 22469 ft 388 kts 138°
2026-05-04 09:57 2.89475 99.64328 22769 ft 390 kts 138°
2026-05-04 09:57 2.87397 99.66121 23067 ft 392 kts 138°
2026-05-04 09:57 2.85331 99.67900 23368 ft 394 kts 138°
2026-05-04 09:58 2.83224 99.69716 23659 ft 397 kts 138°
2026-05-04 09:58 2.81140 99.71513 23950 ft 399 kts 138°
2026-05-04 09:58 2.79036 99.73328 24239 ft 401 kts 138°
2026-05-04 10:00 2.64017 99.86301 26077 ft 414 kts 138°
2026-05-04 10:00 2.61817 99.88198 26342 ft 416 kts 138°
2026-05-04 10:02 2.46253 100.01617 28017 ft 428 kts 138°
2026-05-04 10:04 2.30254 100.15418 29575 ft 437 kts 138°
2026-05-04 10:04 2.27968 100.17439 29747 ft 439 kts 136°
2026-05-04 10:04 2.25758 100.19587 29945 ft 441 kts 134°
2026-05-04 10:04 2.23607 100.21744 30153 ft 442 kts 134°
2026-05-04 10:05 2.21438 100.23928 30360 ft 443 kts 134°
2026-05-04 10:05 2.19260 100.26125 30539 ft 444 kts 134°
2026-05-04 10:05 2.17082 100.28320 30702 ft 446 kts 134°
2026-05-04 10:05 2.14886 100.30534 30891 ft 448 kts 134°
2026-05-04 10:06 2.12690 100.32745 31087 ft 449 kts 134°
2026-05-04 10:06 2.10481 100.34969 31262 ft 450 kts 133°
2026-05-04 10:06 2.08285 100.37183 31430 ft 451 kts 133°
2026-05-04 10:08 1.94973 100.50597 32680 ft 452 kts 134°
2026-05-04 10:08 1.92738 100.52845 32913 ft 452 kts 134°
2026-05-04 10:08 1.90542 100.55054 33140 ft 452 kts 134°
2026-05-04 10:08 1.88299 100.57310 33360 ft 453 kts 134°
2026-05-04 10:09 1.86084 100.59540 33572 ft 453 kts 134°
2026-05-04 10:09 1.83844 100.61794 33774 ft 454 kts 134°
2026-05-04 10:09 1.81640 100.64011 33977 ft 454 kts 134°
2026-05-04 10:09 1.79390 100.66276 34184 ft 455 kts 134°
2026-05-04 10:10 1.77175 100.68504 34381 ft 454 kts 134°
2026-05-04 10:10 1.74963 100.70731 34533 ft 455 kts 134°
2026-05-04 10:10 1.72725 100.72984 34699 ft 456 kts 134°
2026-05-04 10:10 1.70486 100.75238 34819 ft 456 kts 134°
2026-05-04 10:11 1.66023 100.79730 34821 ft 456 kts 134°
2026-05-04 10:11 1.61536 100.84244 34822 ft 456 kts 134°
2026-05-04 10:12 1.57056 100.88753 34821 ft 457 kts 133°
2026-05-04 10:12 1.52578 100.93260 34822 ft 458 kts 134°
2026-05-04 10:13 1.48083 100.97781 34822 ft 457 kts 133°
2026-05-04 10:13 1.43616 101.02276 34821 ft 457 kts 133°
2026-05-04 10:14 1.39152 101.06767 34826 ft 456 kts 133°
2026-05-04 10:16 1.21261 101.24753 34836 ft 456 kts 133°
2026-05-04 10:16 1.16792 101.29247 34829 ft 455 kts 133°
2026-05-04 10:17 1.12349 101.33715 34825 ft 454 kts 133°
2026-05-04 10:19 0.94496 101.51668 34825 ft 454 kts 133°
2026-05-04 10:19 0.90060 101.56128 34826 ft 454 kts 133°
2026-05-04 10:20 0.85608 101.60606 34827 ft 454 kts 133°
2026-05-04 10:20 0.81148 101.65089 34825 ft 454 kts 133°
2026-05-04 10:21 0.76724 101.69536 34823 ft 454 kts 133°
2026-05-04 10:21 0.72278 101.74006 34820 ft 453 kts 133°
2026-05-04 10:22 0.65596 101.80725 34813 ft 451 kts 134°
2026-05-04 10:23 0.61190 101.85156 34816 ft 451 kts 133°
2026-05-04 10:25 0.43501 102.02940 34821 ft 451 kts 133°
2026-05-04 10:25 0.39085 102.07381 34820 ft 451 kts 133°
2026-05-04 10:26 0.34645 102.11846 34819 ft 451 kts 133°
2026-05-04 10:26 0.30223 102.16290 34820 ft 451 kts 133°
2026-05-04 10:27 0.25804 102.20734 34823 ft 452 kts 133°
2026-05-04 10:27 0.21377 102.25182 34821 ft 452 kts 133°
2026-05-04 10:28 0.16935 102.29646 34824 ft 452 kts 133°
2026-05-04 10:28 0.12490 102.34116 34825 ft 452 kts 133°
2026-05-04 10:29 0.08092 102.38536 34820 ft 452 kts 133°
2026-05-04 10:29 0.03649 102.43002 34821 ft 452 kts 133°
2026-05-04 10:30 -0.00788 102.47460 34820 ft 453 kts 133°
2026-05-04 10:30 -0.05229 102.51924 34827 ft 453 kts 133°
2026-05-04 10:31 -0.09681 102.56398 34829 ft 453 kts 133°
2026-05-04 10:32 -0.25245 102.72044 34826 ft 453 kts 133°
2026-05-04 10:33 -0.29713 102.76535 34826 ft 454 kts 133°
2026-05-04 10:33 -0.34153 102.80997 34823 ft 454 kts 133°
2026-05-04 10:34 -0.38604 102.85470 34825 ft 454 kts 133°
2026-05-04 10:34 -0.43071 102.89960 34817 ft 454 kts 133°
2026-05-04 10:35 -0.47521 102.94431 34818 ft 454 kts 133°
2026-05-04 10:35 -0.51979 102.98910 34819 ft 454 kts 133°
2026-05-04 10:36 -0.56405 103.03361 34820 ft 454 kts 133°
2026-05-04 10:36 -0.60867 103.07847 34822 ft 454 kts 133°
2026-05-04 10:37 -0.65321 103.12324 34821 ft 454 kts 133°
2026-05-04 10:37 -0.69759 103.16789 34821 ft 454 kts 133°
2026-05-04 10:39 -0.85276 103.32400 34821 ft 452 kts 133°
2026-05-04 10:40 -0.89799 103.36786 34824 ft 453 kts 136°
2026-05-04 10:40 -0.94641 103.40797 34829 ft 453 kts 139°
2026-05-04 10:41 -0.99575 103.44779 34832 ft 453 kts 139°
2026-05-04 10:41 -1.04440 103.48711 34832 ft 452 kts 139°
2026-05-04 10:42 -1.09343 103.52679 34833 ft 452 kts 139°
2026-05-04 10:42 -1.14255 103.56657 34833 ft 452 kts 139°
2026-05-04 10:43 -1.19143 103.60614 34833 ft 452 kts 139°
2026-05-04 10:45 -1.38636 103.76400 34839 ft 451 kts 139°
2026-05-04 10:45 -1.43529 103.80363 34838 ft 450 kts 139°
2026-05-04 10:46 -1.48381 103.84293 34841 ft 451 kts 139°
2026-05-04 10:46 -1.53251 103.88237 34840 ft 450 kts 139°
2026-05-04 10:47 -1.58111 103.92175 34840 ft 449 kts 139°
2026-05-04 10:47 -1.62982 103.96121 34840 ft 449 kts 139°
2026-05-04 10:49 -1.82346 104.11808 34840 ft 449 kts 139°
2026-05-04 10:50 -1.87190 104.15736 34839 ft 449 kts 139°
2026-05-04 10:52 -2.06631 104.31477 34836 ft 450 kts 139°
2026-05-04 10:52 -2.11495 104.35416 34835 ft 450 kts 139°
2026-05-04 10:54 -2.31042 104.51257 34837 ft 452 kts 139°
2026-05-04 10:56 -2.50625 104.67139 34840 ft 454 kts 139°
2026-05-04 10:57 -2.55536 104.71121 34843 ft 454 kts 139°
2026-05-04 10:57 -2.60431 104.75091 34842 ft 454 kts 139°
2026-05-04 10:58 -2.65358 104.79089 34843 ft 455 kts 139°
2026-05-04 10:58 -2.70272 104.83076 34843 ft 455 kts 139°
2026-05-04 10:59 -2.75179 104.87058 34843 ft 455 kts 139°
2026-05-04 10:59 -2.80095 104.91047 34844 ft 455 kts 139°
2026-05-04 11:00 -2.85023 104.95046 34844 ft 455 kts 139°
2026-05-04 11:02 -3.04684 105.11011 34841 ft 455 kts 139°
2026-05-04 11:05 -3.41474 105.41254 34844 ft 462 kts 138°
2026-05-04 11:06 -3.46403 105.45373 34842 ft 461 kts 138°
2026-05-04 11:06 -3.51324 105.49489 34840 ft 461 kts 138°
2026-05-04 11:10 -3.85892 105.78348 34844 ft 462 kts 138°
2026-05-04 11:12 -4.05642 105.94858 34843 ft 463 kts 138°
2026-05-04 11:12 -4.10584 105.98992 34842 ft 463 kts 138°
2026-05-04 11:13 -4.15563 106.03157 34843 ft 463 kts 138°
2026-05-04 11:13 -4.20515 106.07301 34843 ft 462 kts 138°
2026-05-04 11:14 -4.25432 106.11416 34703 ft 465 kts 138°
2026-05-04 11:14 -4.27921 106.13499 33865 ft 467 kts 138°
2026-05-04 11:16 -4.44883 106.27696 29991 ft 436 kts 137°
2026-05-04 11:16 -4.47199 106.29636 29605 ft 428 kts 137°
2026-05-04 11:16 -4.49463 106.31532 29146 ft 422 kts 137°
2026-05-04 11:17 -4.51723 106.33426 28707 ft 420 kts 137°
2026-05-04 11:17 -4.53960 106.35302 28280 ft 417 kts 137°
2026-05-04 11:19 -4.69177 106.48059 25389 ft 398 kts 137°
2026-05-04 11:19 -4.71280 106.49823 24984 ft 395 kts 137°
2026-05-04 11:19 -4.73398 106.51601 24566 ft 392 kts 137°
2026-05-04 11:19 -4.75494 106.53360 24154 ft 389 kts 137°
2026-05-04 11:20 -4.77548 106.55084 23748 ft 387 kts 137°
2026-05-04 11:20 -4.79602 106.56806 23340 ft 384 kts 137°
2026-05-04 11:20 -4.81641 106.58518 22937 ft 382 kts 137°
2026-05-04 11:20 -4.83670 106.60219 22533 ft 379 kts 137°
2026-05-04 11:22 -4.99844 106.68572 19796 ft 364 kts 152°
2026-05-04 11:22 -5.02151 106.69622 19416 ft 362 kts 152°
2026-05-04 11:23 -5.04435 106.70665 18981 ft 360 kts 152°
2026-05-04 11:23 -5.06728 106.71712 18609 ft 359 kts 153°
2026-05-04 11:24 -5.20198 106.77860 16426 ft 347 kts 153°
2026-05-04 11:25 -5.22401 106.78855 15984 ft 345 kts 153°
2026-05-04 11:25 -5.24581 106.79841 15545 ft 344 kts 153°
2026-05-04 11:25 -5.26763 106.80829 15125 ft 342 kts 154°
2026-05-04 11:26 -5.31051 106.82772 14228 ft 337 kts 154°
2026-05-04 11:27 -5.45794 106.89454 11946 ft 323 kts 155°
2026-05-04 11:28 -5.47906 106.90101 11679 ft 310 kts 171°
2026-05-04 11:28 -5.50023 106.90197 11384 ft 296 kts 179°
2026-05-04 11:28 -5.52062 106.90157 10869 ft 290 kts 180°
2026-05-04 11:28 -5.54065 106.90106 10244 ft 287 kts 180°
2026-05-04 11:29 -5.56043 106.90060 9602 ft 285 kts 180°
2026-05-04 11:29 -5.58011 106.90023 8991 ft 282 kts 179°
2026-05-04 11:29 -5.59975 106.89988 8446 ft 277 kts 179°
2026-05-04 11:29 -5.61899 106.89957 8267 ft 277 kts 179°
2026-05-04 11:31 -5.75012 106.89750 6617 ft 261 kts 181°
2026-05-04 11:33 -5.87706 106.89477 4022 ft 249 kts 180°
2026-05-04 11:33 -5.89402 106.89441 3873 ft 241 kts 180°
2026-05-04 11:33 -5.91063 106.89406 3728 ft 234 kts 180°
2026-05-04 11:34 -5.92668 106.89372 3587 ft 227 kts 180°
2026-05-04 11:34 -5.94247 106.89339 3448 ft 220 kts 180°
2026-05-04 11:34 -5.95746 106.89259 3304 ft 213 kts 192°
2026-05-04 11:34 -5.97046 106.88604 3141 ft 208 kts 219°
2026-05-04 11:35 -5.98138 106.87645 2933 ft 206 kts 221°
2026-05-04 11:35 -5.99202 106.86679 2688 ft 206 kts 221°
2026-05-04 11:35 -6.00267 106.85727 2452 ft 206 kts 221°
2026-05-04 11:35 -6.01348 106.84772 2273 ft 205 kts 221°
2026-05-04 11:36 -6.02424 106.83827 2108 ft 205 kts 220°
2026-05-04 11:36 -6.03500 106.82880 2007 ft 204 kts 226°
2026-05-04 11:36 -6.04362 106.81741 2095 ft 205 kts 239°
2026-05-04 11:36 -6.05013 106.80469 2038 ft 200 kts 248°
2026-05-04 11:37 -6.05541 106.79208 2015 ft 194 kts 251°
2026-05-04 11:37 -6.06009 106.77962 1985 ft 183 kts 249°
2026-05-04 11:37 -6.06450 106.76807 1991 ft 174 kts 246°
2026-05-04 11:37 -6.06911 106.75684 1833 ft 172 kts 248°
2026-05-04 11:38 -6.07363 106.74567 1610 ft 170 kts 249°
2026-05-04 11:38 -6.07801 106.73468 1382 ft 169 kts 251°
2026-05-04 11:38 -6.08233 106.72377 1151 ft 168 kts 249°
2026-05-04 11:38 -6.08642 106.71314 939 ft 155 kts 248°
2026-05-04 11:39 -6.09043 106.70330 739 ft 146 kts 248°
2026-05-04 11:39 -6.09411 106.69419 546 ft 138 kts 247°
2026-05-04 11:40 -6.11106 106.65176 47 ft 53 kts 249°
2026-05-04 11:41 -6.11226 106.64892 47 ft 37 kts 239°
2026-05-04 11:41 -6.11374 106.64742 47 ft 22 kts 217°
2026-05-04 11:41 -6.11478 106.64713 47 ft 15 kts 154°
2026-05-04 11:41 -6.11547 106.64777 47 ft 14 kts 89°
2026-05-04 11:42 -6.11513 106.64873 47 ft 14 kts 68°
2026-05-04 11:42 -6.11475 106.64973 47 ft 15 kts 69°
2026-05-04 11:42 -6.11433 106.65076 47 ft 16 kts 68°
2026-05-04 11:42 -6.11390 106.65183 47 ft 16 kts 68°
2026-05-04 11:43 -6.11347 106.65292 47 ft 17 kts 68°
2026-05-04 11:43 -6.11302 106.65405 47 ft 17 kts 68°
2026-05-04 11:43 -6.11259 106.65514 47 ft 15 kts 68°
2026-05-04 11:43 -6.11236 106.65594 47 ft 9 kts 102°
2026-05-04 11:44 -6.11275 106.65627 47 ft 0 kts 163°
2026-05-04 11:44 -6.11276 106.65627 47 ft 0 kts 163°
2026-05-04 11:45 -6.11297 106.65633 47 ft 7 kts 160°
2026-05-04 11:46 -6.11364 106.65659 47 ft 12 kts 153°
2026-05-04 11:46 -6.11414 106.65733 47 ft 13 kts 104°
2026-05-04 11:46 -6.11429 106.65818 47 ft 10 kts 102°
2026-05-04 11:46 -6.11460 106.65865 47 ft 6 kts 148°
2026-05-04 11:47 -6.11477 106.65877 47 ft 0 kts 131°
2026-05-04 11:48 -6.11478 106.65878 47 ft 0 kts 131°
2026-05-04 11:48 -6.11480 106.65881 47 ft 1 kts 138°
2026-05-04 11:48 -6.11504 106.65893 47 ft 6 kts 156°
2026-05-04 11:48 -6.11547 106.65910 47 ft 9 kts 156°
2026-05-04 11:49 -6.11602 106.65936 47 ft 12 kts 158°
2026-05-04 11:49 -6.11668 106.65964 47 ft 13 kts 155°
2026-05-04 11:49 -6.11737 106.65994 47 ft 11 kts 158°
2026-05-04 11:49 -6.11746 106.65998 47 ft 0 kts 159°
2026-05-04 11:50 -6.11747 106.65998 47 ft 0 kts 159°
2026-05-04 11:50 -6.11748 106.65999 47 ft 0 kts 159°
2026-05-04 11:50 -6.11749 106.65999 47 ft 0 kts 159°
2026-05-04 11:51 -6.11751 106.66000 47 ft 0 kts 158°
2026-05-04 11:52 -6.11759 106.66003 47 ft 4 kts 159°
2026-05-04 11:53 -6.11793 106.66022 47 ft 8 kts 134°
2026-05-04 11:53 -6.11799 106.66076 47 ft 10 kts 70°
2026-05-04 11:53 -6.11778 106.66129 47 ft 10 kts 69°
2026-05-04 11:53 -6.11758 106.66181 47 ft 10 kts 69°
2026-05-04 11:55 -6.11610 106.66554 47 ft 10 kts 69°
2026-05-04 11:55 -6.11590 106.66605 47 ft 10 kts 68°
2026-05-04 11:56 -6.11571 106.66653 47 ft 10 kts 69°
2026-05-04 11:56 -6.11551 106.66704 47 ft 10 kts 68°
2026-05-04 11:56 -6.11530 106.66756 47 ft 10 kts 69°
2026-05-04 11:56 -6.11509 106.66809 47 ft 10 kts 68°
2026-05-04 11:57 -6.11492 106.66853 47 ft 7 kts 70°
2026-05-04 11:57 -6.11475 106.66897 47 ft 7 kts 68°
2026-05-04 11:57 -6.11444 106.66936 47 ft 7 kts 28°
2026-05-04 11:57 -6.11409 106.66974 47 ft 7 kts 70°
2026-05-04 11:58 -6.11394 106.67012 47 ft 7 kts 68°
2026-05-04 11:58 -6.11389 106.67024 47 ft 0 kts 69°
2026-05-04 11:58 -6.11390 106.67022 47 ft 0 kts 68°